This is the latest recevied weather packets stored in our database for station/object DO2HBA-6. If no packets are shown the sender has not sent any weather packets the latest 1 day(s).
| Time | Temp. | Humidity | Pressure | Rain* | Wind** | Luminosity | Snow |
|---|---|---|---|---|---|---|---|
| 1778060447 | 22.22° C | 10% | 1007.8 hPa | 0 mm | - | - | - |
| 1778060147 | 21.67° C | 10% | 1007.8 hPa | 0 mm | - | - | - |
| 1778059546 | 21.67° C | 10% | 1007.8 hPa | 0 mm | - | - | - |
| 1778059246 | 21.67° C | 10% | 1008 hPa | 0 mm | - | - | - |
| 1778058345 | 20.56° C | 10% | 1008.2 hPa | 0 mm | - | - | - |
| 1778057744 | 20.56° C | 10% | 1008.3 hPa | 0 mm | - | - | - |
| 1778057444 | 20° C | 10% | 1008.3 hPa | 0 mm | - | - | - |
| 1778057144 | 20° C | 10% | 1008.2 hPa | 0 mm | - | - | - |
| 1778056543 | 19.44° C | 10% | 1008.5 hPa | 0 mm | - | - | - |
| 1778056243 | 18.89° C | 10% | 1008.4 hPa | 0 mm | - | - | - |
| 1778055342 | 18.89° C | 10% | 1008.5 hPa | 0 mm | - | - | - |
| 1778055042 | 18.89° C | 10% | 1008.4 hPa | 0 mm | - | - | - |
| 1778054141 | 17.78° C | 10% | 1008.5 hPa | 0 mm | - | - | - |
| 1778053540 | 17.22° C | 10% | 1008.6 hPa | 0 mm | - | - | - |
| 1778053240 | 17.22° C | 10% | 1008.6 hPa | 0 mm | - | - | - |
| 1778052639 | 16.67° C | 10% | 1008.7 hPa | 0 mm | - | - | - |
| 1778052339 | 16.67° C | 10% | 1008.7 hPa | 0 mm | - | - | - |
| 1778052039 | 16.11° C | 10% | 1008.6 hPa | 0 mm | - | - | - |
| 1778051438 | 16.11° C | 10% | 1008.8 hPa | 0 mm | - | - | - |
| 1778051138 | 15.56° C | 10% | 1008.8 hPa | 0 mm | - | - | - |
| 1778050237 | 15° C | 10% | 1008.7 hPa | 0 mm | - | - | - |
| 1778049937 | 15° C | 10% | 1008.7 hPa | 0 mm | - | - | - |
| 1778049336 | 15° C | 10% | 1008.9 hPa | 0 mm | - | - | - |
| 1778049036 | 15° C | 10% | 1008.9 hPa | 0 mm | - | - | - |
| 1778048135 | 15.56° C | 10% | 1008.9 hPa | 0 mm | - | - | - |
* Rain latest hour (hover to see other rain measurements)
** Current wind speed in m/s (hover to see current wind gust speed)